Accueil
METAR-TAF:

METAR-TAF

Aéroports :

Flessingue, Pays-Bas

latitude: 51-27N, longitude: 3-36E, altitude: 10 m

Observation

Le bulletin a été fait il y a 19 minutes, à 08:25 UTC
Vent 14 kt de nord/nord-ouest, variant entre ouest/nord-ouest et nord/nord-est
Température 16°C
Humidité 72%
Pression 1019 hPa
Visibilité 10 km ou plus

METAR: EHFS 230825Z AUTO 33014KT 300V020 9999 BKN030/// 16/11 Q1019

Heure: 10:44 (08:44 UTC)


TAF: absent

Observations et prévisions météorologiques de plus de 4000 aéroports (messages METAR et TAF).

Les stations disponibles sont représentées par des disques jaunes et rouges sur la carte.

Passer la souris dessus pour voir le nom de la station.

Cliquer dessus pour voir les observations et prévisions météorologiques.

Pour changer de carte: cliquez sur les boutons verts avec une croix noire pour zoomer, sur le bouton vert avec un tiret pour effectuer un zoom arrière, ou sur les flèches vertes pour les cartes adjacentes.


METAR-TAF: